,,Stat6,,Stat2,,Stat8,,Stat9,,Stat10,,Wind1,,Wind1,
time,status,PA1M_AVG,status,PR1M_SUM,status,RH1M_AVG,status,SR1M_AVG,status,TA1M_AVG,status,W1dAve1m,status,W1sAve1m,
2006-12-31, 07:00:02,VALID,919.055,VALID,0,VALID,99.8756,VALID,0,VALID,19.9916,VALID,14,VALID,0.789236,
2006-12-31, 07:01:00,VALID,919.074,VALID,0,VALID,99.8642,VALID,-0.0169808,VALID,20.001,VALID,21,VALID,0.771341,
2006-12-31, 07:02:00,VALID,919.087,VALID,0,VALID,99.8108,VALID,0,VALID,20.0174,VALID,27,VALID,0.829883,
2006-12-31, 07:03:01,VALID,919.079,VALID,0,VALID,99.6836,VALID,-0.0509425,VALID,20.034,VALID,24,VALID,0.836846,
2006-12-31, 07:04:00,VALID,919.077,VALID,0,VALID,99.5972,VALID,0.0169808,VALID,20.0368,VALID,11,VALID,0.90625,
2006-12-31, 07:05:00,VALID,919.081,VALID,0,VALID,99.545,VALID,0,VALID,20.0335,VALID,27,VALID,0.868786,
2006-12-31, 07:06:01,VALID,919.066,VALID,0,VALID,99.5768,VALID,-0.0169808,VALID,20.0303,VALID,15,VALID,1.03838,
2006-12-31, 07:07:00,VALID,919.073,VALID,0,VALID,99.7548,VALID,0,VALID,20.0243,VALID,24,VALID,1.22483,
2006-12-31, 07:08:01,VALID,919.068,VALID,0,VALID,99.8845,VALID,0,VALID,20.0176,VALID,30,VALID,1.21055,
2006-12-31, 07:09:00,VALID,919.066,VALID,0,VALID,99.9952,VALID,0,VALID,19.9943,VALID,34,VALID,1.10423,
2006-12-31, 07:10:00,VALID,919.063,VALID,0,VALID,100,VALID,0.0169808,VALID,19.9781,VALID,35,VALID,1.48565,
2006-12-31, 07:11:00,VALID,919.075,VALID,0,VALID,100,VALID,-0.0339617,VALID,19.9531,VALID,25,VALID,1.28027,
2006-12-31, 07:12:01,VALID,919.068,VALID,0,VALID,100,VALID,0,VALID,19.9307,VALID,36,VALID,1.22584,
2006-12-31, 07:13:00,VALID,919.07,VALID,0,VALID,100,VALID,0,VALID,19.9046,VALID,38,VALID,1.27734,
2006-12-31, 07:14:00,VALID,919.071,VALID,0,VALID,100,VALID,-0.0169808,VALID,19.8885,VALID,34,VALID,1.06615,
2006-12-31, 07:15:00,VALID,919.065,VALID,0,VALID,100,VALID,0,VALID,19.8624,VALID,21,VALID,0.621838,
2006-12-31, 07:16:01,VALID,919.067,VALID,0,VALID,100,VALID,0,VALID,19.8396,VALID,31,VALID,0.627604,
2006-12-31, 07:17:01,VALID,919.052,VALID,0,VALID,100,VALID,0,VALID,19.8199,VALID,33,VALID,0.0776042,
2006-12-31, 07:18:00,VALID,919.038,VALID,0,VALID,100,VALID,0,VALID,19.8199,VALID,30,VALID,0.191229,
2006-12-31, 07:19:00,VALID,919.033,VALID,0,VALID,100,VALID,0,VALID,19.8038,VALID,18,VALID,0.542039,
2006-12-31, 07:20:00,VALID,919.017,VALID,0,VALID,100,VALID,0,VALID,19.7978,VALID,16,VALID,0.0710565,
2006-12-31, 07:21:00,VALID,919.012,VALID,0,VALID,100,VALID,0,VALID,19.7911,VALID,16,VALID,0.000679348,
2006-12-31, 07:22:00,VALID,918.993,VALID,0,VALID,100,VALID,0.0339617,VALID,19.7879,VALID,16,VALID,0.144345,
2006-12-31, 07:23:00,VALID,918.985,VALID,0,VALID,100,VALID,0.0169808,VALID,19.7944,VALID,16,VALID,0.0425347,
2006-12-31, 07:24:00,VALID,918.96,VALID,0,VALID,100,VALID,0,VALID,19.7879,VALID,16,VALID,0.334736,
2006-12-31, 07:25:01,VALID,918.945,VALID,0,VALID,100,VALID,0,VALID,19.7882,VALID,24,VALID,0.414634,
2006-12-31, 07:26:01,VALID,918.918,VALID,0,VALID,100,VALID,0,VALID,19.7747,VALID,29,VALID,0.859193,
2006-12-31, 07:27:00,VALID,918.907,VALID,0,VALID,100,VALID,-0.0169808,VALID,19.772,VALID,4,VALID,0.945313,
2006-12-31, 07:28:01,VALID,918.88,VALID,0,VALID,100,VALID,0,VALID,19.7882,VALID,2,VALID,0.743641,
2006-12-31, 07:29:00,VALID,918.873,VALID,0,VALID,99.9555,VALID,-0.0169808,VALID,19.7951,VALID,6,VALID,0.543241,
2006-12-31, 07:30:01,VALID,918.85,VALID,0,VALID,99.8795,VALID,-0.0339617,VALID,19.7978,VALID,6,VALID,0.54723,
2006-12-31, 07:31:00,VALID,918.822,VALID,0,VALID,99.8871,VALID,0,VALID,19.814,VALID,5,VALID,0.325076,
2006-12-31, 07:32:00,VALID,918.812,VALID,0,VALID,99.821,VALID,0,VALID,19.8271,VALID,345,VALID,0.689062,
2006-12-31, 07:33:01,VALID,918.795,VALID,0,VALID,99.6735,VALID,0,VALID,19.8145,VALID,334,VALID,1.03107,
2006-12-31, 07:34:00,VALID,918.765,VALID,0,VALID,99.5895,VALID,0.0169808,VALID,19.808,VALID,322,VALID,1.09226,
2006-12-31, 07:35:01,VALID,918.754,VALID,0,VALID,99.5234,VALID,-0.0169808,VALID,19.7949,VALID,318,VALID,0.989644,
2006-12-31, 07:36:01,VALID,918.738,VALID,0,VALID,99.4713,VALID,-0.0339617,VALID,19.7852,VALID,309,VALID,0.989281,
2006-12-31, 07:37:00,VALID,918.736,VALID,0,VALID,99.5183,VALID,0,VALID,19.7688,VALID,307,VALID,0.877539,
2006-12-31, 07:38:01,VALID,918.721,VALID,0,VALID,99.5616,VALID,0,VALID,19.7564,VALID,305,VALID,0.983333,
2006-12-31, 07:39:00,VALID,918.7,VALID,0,VALID,99.6048,VALID,-0.0169808,VALID,19.7534,VALID,312,VALID,0.785442,
2006-12-31, 07:40:01,VALID,918.687,VALID,0,VALID,99.6213,VALID,0,VALID,19.7442,VALID,325,VALID,0.576126,
2006-12-31, 07:41:01,VALID,918.676,VALID,0,VALID,99.648,VALID,-0.0169808,VALID,19.7246,VALID,339,VALID,0.636379,
2006-12-31, 07:42:01,VALID,918.655,VALID,0,VALID,99.7256,VALID,0,VALID,19.7144,VALID,355,VALID,0.680233,
2006-12-31, 07:43:00,VALID,918.638,VALID,0,VALID,99.8159,VALID,-0.0169808,VALID,19.705,VALID,358,VALID,0.523056,
2006-12-31, 07:44:01,VALID,918.626,VALID,0,VALID,99.882,VALID,0,VALID,19.6985,VALID,1,VALID,0.545945,
2006-12-31, 07:45:01,VALID,918.611,VALID,0,VALID,99.9507,VALID,-0.0169808,VALID,19.6983,VALID,1,VALID,0.480923,
2006-12-31, 07:46:00,VALID,918.603,VALID,0,VALID,100,VALID,-0.0339617,VALID,19.6918,VALID,1,VALID,0.0967262,
2006-12-31, 07:47:00,VALID,918.589,VALID,0,VALID,100,VALID,0,VALID,19.702,VALID,1,VALID,0.112827,
2006-12-31, 07:48:00,VALID,918.586,VALID,0,VALID,100,VALID,0,VALID,19.7012,VALID,1,VALID,0.0277158,
2006-12-31, 07:49:00,VALID,918.57,VALID,0,VALID,100,VALID,0,VALID,19.7112,VALID,1,VALID,0.0287064,
2006-12-31, 07:50:00,VALID,918.563,VALID,0,VALID,100,VALID,0,VALID,19.7042,VALID,1,VALID,0.150036,
2006-12-31, 07:51:00,VALID,918.555,VALID,0,VALID,99.9964,VALID,0,VALID,19.698,VALID,1,VALID,0.322856,
2006-12-31, 07:52:00,VALID,918.539,VALID,0,VALID,100,VALID,-0.0509425,VALID,19.7015,VALID,2,VALID,0.475195,
2006-12-31, 07:53:00,VALID,918.538,VALID,0,VALID,100,VALID,0,VALID,19.6916,VALID,29,VALID,0.70367,
2006-12-31, 07:54:01,VALID,918.534,VALID,0,VALID,100,VALID,-0.0169808,VALID,19.6781,VALID,39,VALID,0.790234,
2006-12-31, 07:55:00,VALID,918.534,VALID,0,VALID,100,VALID,0,VALID,19.6948,VALID,46,VALID,0.830273,
2006-12-31, 07:56:01,VALID,918.523,VALID,0,VALID,100,VALID,-0.0169808,VALID,19.6953,VALID,63,VALID,0.693714,
2006-12-31, 07:57:01,VALID,918.527,VALID,0,VALID,100,VALID,-0.0339617,VALID,19.6819,VALID,65,VALID,0.621466,
2006-12-31, 07:58:01,VALID,918.525,VALID,0,VALID,100,VALID,-0.0169808,VALID,19.6856,VALID,66,VALID,0.689596,
2006-12-31, 07:59:01,VALID,918.532,VALID,0,VALID,100,VALID,0,VALID,19.6824,VALID,65,VALID,0.558008,
2006-12-31, 08:00:01,VALID,918.531,VALID,0,VALID,100,VALID,0,VALID,19.6625,VALID,62,VALID,0.538261,
2006-12-31, 08:01:01,VALID,918.546,VALID,0,VALID,100,VALID,-0.0339617,VALID,19.6632,VALID,54,VALID,0.680078,
2006-12-31, 08:02:01,VALID,918.554,VALID,0,VALID,100,VALID,-0.0169808,VALID,19.6501,VALID,54,VALID,0.433222,
2006-12-31, 08:03:01,VALID,918.558,VALID,0,VALID,100,VALID,-0.0169808,VALID,19.6466,VALID,54,VALID,0.629383,
2006-12-31, 08:04:01,VALID,918.546,VALID,0,VALID,100,VALID,-0.0169808,VALID,19.6369,VALID,48,VALID,1.07146,
2006-12-31, 08:05:01,VALID,918.542,VALID,0,VALID,100,VALID,-0.0169808,VALID,19.6108,VALID,46,VALID,1.1862,
2006-12-31, 08:06:01,VALID,918.543,VALID,0,VALID,100,VALID,-0.0169808,VALID,19.6049,VALID,42,VALID,1.06667,
2006-12-31, 08:07:01,VALID,918.534,VALID,0,VALID,100,VALID,0,VALID,19.6086,VALID,49,VALID,0.953869,
2006-12-31, 08:08:00,VALID,918.521,VALID,0,VALID,100,VALID,0,VALID,19.6086,VALID,42,VALID,0.704823,
2006-12-31, 08:09:01,VALID,918.497,VALID,0,VALID,100,VALID,-0.0169808,VALID,19.6044,VALID,44,VALID,0.783558,
2006-12-31, 08:10:00,VALID,918.478,VALID,0,VALID,100,VALID,-0.0169808,VALID,19.6079,VALID,47,VALID,0.912946,
2006-12-31, 08:11:01,VALID,918.468,VALID,0,VALID,100,VALID,0,VALID,19.621,VALID,46,VALID,0.911272,
2006-12-31, 08:12:01,VALID,918.452,VALID,0,VALID,100,VALID,-0.0169808,VALID,19.6208,VALID,45,VALID,0.929501,
2006-12-31, 08:13:01,VALID,918.436,VALID,0,VALID,100,VALID,-0.0169808,VALID,19.631,VALID,41,VALID,0.935865,
2006-12-31, 08:14:01,VALID,918.424,VALID,0,VALID,100,VALID,0,VALID,19.6305,VALID,33,VALID,1.22905,
2006-12-31, 08:15:01,VALID,918.408,VALID,0,VALID,100,VALID,0,VALID,19.6468,VALID,27,VALID,1.14878,
2006-12-31, 08:16:00,VALID,918.394,VALID,0,VALID,100,VALID,0,VALID,19.6434,VALID,28,VALID,1.13009,
2006-12-31, 08:17:01,VALID,918.388,VALID,0,VALID,100,VALID,-0.0339617,VALID,19.6632,VALID,26,VALID,1.02006,
2006-12-31, 08:18:01,VALID,918.378,VALID,0,VALID,100,VALID,-0.0169808,VALID,19.6722,VALID,24,VALID,1.31593,
2006-12-31, 08:19:01,VALID,918.371,VALID,0,VALID,100,VALID,0,VALID,19.7114,VALID,23,VALID,1.25073,
2006-12-31, 08:20:01,VALID,918.379,VALID,0,VALID,100,VALID,0,VALID,19.7343,VALID,6,VALID,1.17435,
2006-12-31, 08:21:01,VALID,918.36,VALID,0,VALID,99.9163,VALID,0,VALID,19.7397,VALID,356,VALID,0.92351,
2006-12-31, 08:22:01,VALID,918.364,VALID,0,VALID,99.8464,VALID,0,VALID,19.7566,VALID,352,VALID,1.01781,
2006-12-31, 08:23:01,VALID,918.35,VALID,0,VALID,99.8286,VALID,0,VALID,19.7504,VALID,354,VALID,1.01545,
2006-12-31, 08:24:01,VALID,918.336,VALID,0,VALID,99.8731,VALID,-0.0169808,VALID,19.737,VALID,9,VALID,1.30832,
2006-12-31, 08:25:01,VALID,918.329,VALID,0,VALID,99.9529,VALID,0,VALID,19.7276,VALID,5,VALID,1.12427,
2006-12-31, 08:26:01,VALID,918.318,VALID,0,VALID,100,VALID,0,VALID,19.7079,VALID,12,VALID,1.53761,
2006-12-31, 08:27:01,VALID,918.311,VALID,0,VALID,100,VALID,0,VALID,19.6791,VALID,3,VALID,1.52653,
2006-12-31, 08:28:01,VALID,918.321,VALID,0,VALID,100,VALID,0,VALID,19.624,VALID,6,VALID,1.50541,
2006-12-31, 08:29:01,VALID,918.314,VALID,0,VALID,100,VALID,0,VALID,19.5788,VALID,3,VALID,1.13765,
2006-12-31, 08:30:01,VALID,918.319,VALID,0,VALID,100,VALID,-0.0169808,VALID,19.5532,VALID,19,VALID,1.12176,
2006-12-31, 08:31:01,VALID,918.325,VALID,0,VALID,100,VALID,-0.0509425,VALID,19.5239,VALID,31,VALID,0.871185,
2006-12-31, 08:32:01,VALID,918.319,VALID,0,VALID,100,VALID,0,VALID,19.4971,VALID,34,VALID,1.2378,
2006-12-31, 08:33:01,VALID,918.328,VALID,0,VALID,100,VALID,0,VALID,19.507,VALID,28,VALID,1.36953,
2006-12-31, 08:34:01,VALID,918.328,VALID,0,VALID,100,VALID,0,VALID,19.5105,VALID,24,VALID,1.13711,
2006-12-31, 08:35:01,VALID,918.338,VALID,0,VALID,100,VALID,-0.0169808,VALID,19.5172,VALID,26,VALID,1.35156,
2006-12-31, 08:36:01,VALID,918.335,VALID,0,VALID,100,VALID,-0.0169808,VALID,19.5368,VALID,29,VALID,1.1786,
2006-12-31, 08:37:01,VALID,918.332,VALID,0,VALID,100,VALID,0,VALID,19.5334,VALID,25,VALID,0.938743,
2006-12-31, 08:38:00,VALID,918.324,VALID,0,VALID,100,VALID,-0.0339617,VALID,19.5331,VALID,22,VALID,1.33612,
2006-12-31, 08:39:00,VALID,918.313,VALID,0,VALID,100,VALID,-0.0169808,VALID,19.5465,VALID,20,VALID,1.37863,
2006-12-31, 08:40:00,VALID,918.298,VALID,0,VALID,100,VALID,-0.0169808,VALID,19.5691,VALID,7,VALID,1.37843,
2006-12-31, 08:41:00,VALID,918.283,VALID,0,VALID,100,VALID,0,VALID,19.5853,VALID,21,VALID,1.4801,
2006-12-31, 08:42:00,VALID,918.258,VALID,0,VALID,100,VALID,0,VALID,19.6141,VALID,13,VALID,1.19722,
2006-12-31, 08:43:00,VALID,918.228,VALID,0,VALID,100,VALID,-0.0339617,VALID,19.6367,VALID,360,VALID,1.25438,
2006-12-31, 08:44:00,VALID,918.205,VALID,0,VALID,100,VALID,0,VALID,19.6498,VALID,7,VALID,1.2641,
2006-12-31, 08:45:00,VALID,918.183,VALID,0,VALID,100,VALID,0,VALID,19.659,VALID,22,VALID,1.34395,
2006-12-31, 08:46:00,VALID,918.156,VALID,0,VALID,100,VALID,-0.0169808,VALID,19.669,VALID,19,VALID,1.38778,
2006-12-31, 08:47:00,VALID,918.131,VALID,0,VALID,100,VALID,0,VALID,19.6913,VALID,14,VALID,1.01472,
2006-12-31, 08:48:00,VALID,918.126,VALID,0,VALID,100,VALID,0.0169808,VALID,19.7047,VALID,20,VALID,1.36191,
2006-12-31, 08:49:00,VALID,918.101,VALID,0,VALID,100,VALID,0,VALID,19.7305,VALID,20,VALID,1.10849,
2006-12-31, 08:50:00,VALID,918.093,VALID,0,VALID,100,VALID,0.0169808,VALID,19.7303,VALID,14,VALID,1.08878,
2006-12-31, 08:51:00,VALID,918.079,VALID,0,VALID,100,VALID,0,VALID,19.7139,VALID,15,VALID,0.991425,
2006-12-31, 08:52:00,VALID,918.069,VALID,0,VALID,100,VALID,0,VALID,19.7139,VALID,17,VALID,0.956214,
2006-12-31, 08:53:00,VALID,918.056,VALID,0,VALID,100,VALID,0,VALID,19.7141,VALID,4,VALID,0.779492,
2006-12-31, 08:54:00,VALID,918.037,VALID,0,VALID,100,VALID,0,VALID,19.7109,VALID,24,VALID,0.963542,
2006-12-31, 08:55:00,VALID,918.02,VALID,0,VALID,100,VALID,-0.0169808,VALID,19.7109,VALID,7,VALID,1.17276,
2006-12-31, 08:56:00,VALID,917.988,VALID,0,VALID,100,VALID,-0.0339617,VALID,19.7047,VALID,3,VALID,1.15352,
2006-12-31, 08:57:00,VALID,917.964,VALID,0,VALID,100,VALID,0.0169808,VALID,19.6911,VALID,348,VALID,0.787388,
2006-12-31, 08:58:00,VALID,917.943,VALID,0,VALID,100,VALID,0,VALID,19.6717,VALID,343,VALID,0.777778,
2006-12-31, 08:59:00,VALID,917.937,VALID,0,VALID,100,VALID,0,VALID,19.6685,VALID,335,VALID,0.862827,
2006-12-31, 09:00:00,VALID,917.919,VALID,0,VALID,100,VALID,0.0169808,VALID,19.656,VALID,338,VALID,1.04048,
2006-12-31, 09:01:00,VALID,917.902,VALID,0,VALID,100,VALID,0,VALID,19.6364,VALID,337,VALID,0.692508,
2006-12-31, 09:02:00,VALID,917.893,VALID,0,VALID,100,VALID,0.0339617,VALID,19.63,VALID,339,VALID,0.589749,
2006-12-31, 09:03:00,VALID,917.903,VALID,0,VALID,100,VALID,0,VALID,19.6108,VALID,352,VALID,0.867551,
2006-12-31, 09:04:00,VALID,917.874,VALID,0,VALID,100,VALID,0,VALID,19.5877,VALID,11,VALID,1.18877,
2006-12-31, 09:05:00,VALID,917.877,VALID,0,VALID,100,VALID,0.0169808,VALID,19.5818,VALID,12,VALID,1.14996,
2006-12-31, 09:06:00,VALID,917.876,VALID,0,VALID,100,VALID,0,VALID,19.5686,VALID,359,VALID,1.11932,
2006-12-31, 09:07:00,VALID,917.855,VALID,0,VALID,100,VALID,0.0169808,VALID,19.5652,VALID,334,VALID,0.54652,
2006-12-31, 09:08:00,VALID,917.851,VALID,0,VALID,100,VALID,0,VALID,19.5679,VALID,308,VALID,0.790879,
2006-12-31, 09:09:00,VALID,917.845,VALID,0,VALID,100,VALID,0,VALID,19.5714,VALID,311,VALID,0.981889,
2006-12-31, 09:10:00,VALID,917.82,VALID,0,VALID,100,VALID,-0.0169808,VALID,19.5818,VALID,308,VALID,1.12979,
2006-12-31, 09:11:00,VALID,917.804,VALID,0,VALID,100,VALID,0,VALID,19.5689,VALID,295,VALID,1.22008,
2006-12-31, 09:12:00,VALID,917.788,VALID,0,VALID,100,VALID,-0.0339617,VALID,19.5659,VALID,300,VALID,1.30796,
2006-12-31, 09:13:00,VALID,917.758,VALID,0,VALID,100,VALID,-0.0169808,VALID,19.553,VALID,301,VALID,1.14044,
2006-12-31, 09:14:00,VALID,917.735,VALID,0,VALID,100,VALID,0,VALID,19.5296,VALID,303,VALID,0.822856,
2006-12-31, 09:15:00,VALID,917.725,VALID,0,VALID,100,VALID,-0.0169808,VALID,19.5105,VALID,303,VALID,0.549665,
2006-12-31, 09:16:00,VALID,917.705,VALID,0,VALID,100,VALID,0,VALID,19.5073,VALID,303,VALID,0.698289,
2006-12-31, 09:17:00,VALID,917.677,VALID,0,VALID,100,VALID,-0.0169808,VALID,19.4978,VALID,304,VALID,0.702934,
2006-12-31, 09:18:00,VALID,917.648,VALID,0,VALID,100,VALID,0,VALID,19.4914,VALID,304,VALID,0.368359,
2006-12-31, 09:19:00,VALID,917.626,VALID,0,VALID,100,VALID,0,VALID,19.4787,VALID,304,VALID,0.282366,
2006-12-31, 09:20:00,VALID,917.602,VALID,0,VALID,100,VALID,0.0169808,VALID,19.4623,VALID,304,VALID,0.384266,
2006-12-31, 09:21:00,VALID,917.581,VALID,0,VALID,100,VALID,0,VALID,19.4594,VALID,304,VALID,0.451126,
2006-12-31, 09:22:00,VALID,917.548,VALID,0,VALID,100,VALID,0,VALID,19.4395,VALID,304,VALID,0.659549,
2006-12-31, 09:23:00,VALID,917.518,VALID,0,VALID,100,VALID,0,VALID,19.4333,VALID,303,VALID,0.944741,
2006-12-31, 09:24:00,VALID,917.499,VALID,0,VALID,100,VALID,0,VALID,19.407,VALID,305,VALID,1.08498,
2006-12-31, 09:25:00,VALID,917.497,VALID,0,VALID,100,VALID,0,VALID,19.4169,VALID,306,VALID,1.02115,
2006-12-31, 09:26:00,VALID,917.481,VALID,0,VALID,100,VALID,0.0339617,VALID,19.404,VALID,301,VALID,1.02734,
2006-12-31, 09:27:00,VALID,917.451,VALID,0,VALID,100,VALID,0,VALID,19.3814,VALID,285,VALID,1.15123,
2006-12-31, 09:28:00,VALID,917.454,VALID,0,VALID,100,VALID,-0.0169808,VALID,19.3623,VALID,282,VALID,1.05556,
2006-12-31, 09:29:00,VALID,917.462,VALID,0,VALID,100,VALID,0.0169808,VALID,19.3528,VALID,285,VALID,0.795945,
2006-12-31, 09:30:00,VALID,917.471,VALID,0,VALID,100,VALID,0,VALID,19.3367,VALID,286,VALID,0.507813,
2006-12-31, 09:31:00,VALID,917.464,VALID,0,VALID,100,VALID,0,VALID,19.3367,VALID,293,VALID,0.590104,
2006-12-31, 09:32:00,VALID,917.466,VALID,0,VALID,100,VALID,-0.0169808,VALID,19.3369,VALID,298,VALID,0.578125,
2006-12-31, 09:33:00,VALID,917.466,VALID,0,VALID,100,VALID,0,VALID,19.3268,VALID,298,VALID,0.520894,
2006-12-31, 09:34:00,VALID,917.46,VALID,0,VALID,100,VALID,0,VALID,19.3402,VALID,298,VALID,0.514737,
2006-12-31, 09:35:00,VALID,917.457,VALID,0,VALID,100,VALID,0,VALID,19.3235,VALID,298,VALID,0.453125,
2006-12-31, 09:36:00,VALID,917.443,VALID,0,VALID,100,VALID,0,VALID,19.3307,VALID,298,VALID,0.398633,
2006-12-31, 09:37:00,VALID,917.412,VALID,0,VALID,100,VALID,0,VALID,19.3109,VALID,298,VALID,0.521984,
2006-12-31, 09:38:00,VALID,917.38,VALID,0,VALID,100,VALID,0,VALID,19.3081,VALID,298,VALID,0.548735,
2006-12-31, 09:39:00,VALID,917.341,VALID,0,VALID,100,VALID,-0.0169808,VALID,19.3176,VALID,298,VALID,0.743278,
2006-12-31, 09:40:00,VALID,917.311,VALID,0,VALID,100,VALID,0,VALID,19.2975,VALID,298,VALID,0.790179,
2006-12-31, 09:41:00,VALID,917.276,VALID,0,VALID,100,VALID,-0.0169808,VALID,19.3012,VALID,298,VALID,0.811942,
2006-12-31, 09:42:00,VALID,917.254,VALID,0,VALID,100,VALID,0,VALID,19.3076,VALID,300,VALID,0.926669,
2006-12-31, 09:43:00,VALID,917.242,VALID,0,VALID,100,VALID,0,VALID,19.3044,VALID,305,VALID,0.84189,
2006-12-31, 09:44:00,VALID,917.24,VALID,0,VALID,100,VALID,-0.0169808,VALID,19.3046,VALID,306,VALID,0.62718,
2006-12-31, 09:45:00,VALID,917.228,VALID,0,VALID,100,VALID,0,VALID,19.2912,VALID,306,VALID,0.66246,
2006-12-31, 09:46:00,VALID,917.231,VALID,0,VALID,100,VALID,-0.0339617,VALID,19.2816,VALID,307,VALID,0.553906,
2006-12-31, 09:47:00,VALID,917.233,VALID,0,VALID,100,VALID,-0.0169808,VALID,19.2756,VALID,324,VALID,1.02053,
2006-12-31, 09:48:00,VALID,917.235,VALID,0,VALID,100,VALID,0,VALID,19.2758,VALID,329,VALID,0.893821,
2006-12-31, 09:49:00,VALID,917.235,VALID,0,VALID,100,VALID,0,VALID,19.2724,VALID,329,VALID,0.204055,
2006-12-31, 09:50:00,VALID,917.242,VALID,0,VALID,100,VALID,-0.0169808,VALID,19.2654,VALID,328,VALID,0.431076,
2006-12-31, 09:51:00,VALID,917.228,VALID,0,VALID,100,VALID,0,VALID,19.2691,VALID,326,VALID,0.344866,
2006-12-31, 09:52:00,VALID,917.221,VALID,0,VALID,100,VALID,-0.0169808,VALID,19.256,VALID,326,VALID,0.456214,
2006-12-31, 09:53:00,VALID,917.222,VALID,0,VALID,100,VALID,0,VALID,19.2532,VALID,328,VALID,0.498666,
2006-12-31, 09:54:00,VALID,917.213,VALID,0,VALID,100,VALID,0,VALID,19.2433,VALID,330,VALID,0.499619,
2006-12-31, 09:55:00,VALID,917.215,VALID,0,VALID,100,VALID,0,VALID,19.253,VALID,351,VALID,0.596418,
2006-12-31, 09:56:00,VALID,917.205,VALID,0,VALID,100,VALID,0,VALID,19.2498,VALID,2,VALID,0.739169,
2006-12-31, 09:58:00,VALID,917.194,VALID,0,VALID,100,VALID,0,VALID,19.2629,VALID,2,VALID,0.769375,
2006-12-31, 09:59:00,VALID,917.174,VALID,0,VALID,100,VALID,0.0169808,VALID,19.2818,VALID,2,VALID,0.69112,
